HK4RAU-20 Weather Reports


Display with metric or nautical units.
time (UTC)temp
F
wind
direction
speed
MPH
gust
MPH
rain 1hr
in
rain 24hr
in
rain mn
in
humidity
%
barometer
mb
20260507092552 74 330 3.0 0.0 0.00 0.00 0.00 78 1009.0
20260507092243 74 330 3.0 0.0 0.00 0.00 0.00 78 1009.0
20260507091940 75 330 3.0 0.0 0.00 0.00 0.00 78 1009.0
20260507091633 74 330 3.0 0.0 0.00 0.00 0.00 78 1009.0
20260507091325 75 330 3.0 0.0 0.00 0.00 0.00 78 1009.0
20260507091019 75 330 3.0 0.0 0.00 0.00 0.00 78 1009.0
20260507090708 76 0 2.0 0.0 0.00 0.00 0.00 78 1009.0
20260507090406 76 0 2.0 0.0 0.00 0.00 0.00 78 1009.0
20260507090100 76 0 2.0 0.0 0.00 0.00 0.00 78 1009.0
20260507085753 77 0 2.0 0.0 0.00 0.00 0.00 78 1009.0
20260507085447 76 0 2.0 0.0 0.00 0.00 0.00 78 1009.0
20260507085145 77 0 2.0 0.0 0.00 0.00 0.00 78 1009.0
20260507084837 77 0 2.0 0.0 0.00 0.00 0.00 78 1009.0
20260507084531 78 0 2.0 0.0 0.00 0.00 0.00 78 1009.0
20260507084223 78 0 2.0 0.0 0.00 0.00 0.00 78 1009.0
20260507083916 78 0 2.0 0.0 0.00 0.00 0.00 78 1009.0
20260507083605 79 0 2.0 0.0 0.00 0.00 0.00 78 1008.0
20260507083258 78 0 2.0 0.0 0.00 0.00 0.00 78 1009.0
20260507082951 79 0 2.0 0.0 0.00 0.00 0.00 78 1008.0
20260507082640 79 0 2.0 0.0 0.00 0.00 0.00 78 1008.0
20260507082328 80 0 2.0 0.0 0.00 0.00 0.00 78 1008.0
20260507082022 80 0 2.0 0.0 0.00 0.00 0.00 78 1008.0
20260507081720 80 0 2.0 0.0 0.00 0.00 0.00 78 1008.0
20260507081414 74 50 3.0 0.0 0.00 0.00 0.00 79 1009.0
20260507081107 74 50 3.0 0.0 0.00 0.00 0.00 79 1009.0
20260507080806 75 50 3.0 0.0 0.00 0.00 0.00 79 1009.0
20260507080500 75 50 3.0 0.0 0.00 0.00 0.00 79 1009.0
20260507080148 74 50 3.0 0.0 0.00 0.00 0.00 79 1009.0
20260507075841 75 50 3.0 0.0 0.00 0.00 0.00 79 1009.0
20260507075533 76 50 3.0 0.0 0.00 0.00 0.00 79 1009.0
20260507075227 75 50 3.0 0.0 0.00 0.00 0.00 79 1009.0
20260507074915 76 50 3.0 0.0 0.00 0.00 0.00 79 1009.0
20260507074614 76 50 3.0 0.0 0.00 0.00 0.00 79 1009.0
20260507074307 77 50 3.0 0.0 0.00 0.00 0.00 79 1009.0
20260507074001 77 50 3.0 0.0 0.00 0.00 0.00 79 1009.0
20260507073659 76 50 3.0 0.0 0.00 0.00 0.00 79 1009.0
20260507073348 77 50 3.0 0.0 0.00 0.00 0.00 79 1009.0
20260507073041 78 50 3.0 0.0 0.00 0.00 0.00 79 1009.0
20260507072735 79 50 3.0 0.0 0.00 0.00 0.00 79 1009.0
20260507072429 78 50 3.0 0.0 0.00 0.00 0.00 79 1009.0
20260507072117 79 50 3.0 0.0 0.00 0.00 0.00 79 1009.0
20260507071806 79 50 3.0 0.0 0.00 0.00 0.00 79 1009.0
20260507071459 80 50 3.0 0.0 0.00 0.00 0.00 79 1009.0
20260507071148 80 50 3.0 0.0 0.00 0.00 0.00 79 1009.0
20260507070847 80 50 3.0 0.0 0.00 0.00 0.00 79 1009.0
20260507070530 81 0 2.0 0.0 0.00 0.00 0.00 79 1009.0
20260507070223 81 0 2.0 0.0 0.00 0.00 0.00 79 1009.0
20260507065917 82 0 2.0 0.0 0.00 0.00 0.00 79 1009.0
20260507065610 82 0 2.0 0.0 0.00 0.00 0.00 79 1009.0
20260507065307 82 0 2.0 0.0 0.00 0.00 0.00 79 1009.0
20260507065005 83 0 2.0 0.0 0.00 0.00 0.00 79 1009.0
20260507064654 83 0 2.0 0.0 0.00 0.00 0.00 79 1009.0
20260507064347 83 0 2.0 0.0 0.00 0.00 0.00 79 1009.0
20260507064046 83 0 2.0 0.0 0.00 0.00 0.00 79 1009.0
20260507063739 84 0 2.0 0.0 0.00 0.00 0.00 79 1009.0
20260507063432 75 60 3.0 0.0 0.00 0.00 0.00 65 1009.0
20260507063126 75 60 3.0 0.0 0.00 0.00 0.00 65 1009.0
20260507062820 75 60 3.0 0.0 0.00 0.00 0.00 65 1009.0
20260507062202 76 60 3.0 0.0 0.00 0.00 0.00 65 1009.0
20260507061858 76 60 3.0 0.0 0.00 0.00 0.00 65 1009.0
20260507061551 77 60 3.0 0.0 0.00 0.00 0.00 65 1009.0
20260507061248 77 60 3.0 0.0 0.00 0.00 0.00 65 1009.0
20260507060947 77 60 3.0 0.0 0.00 0.00 0.00 65 1009.0
20260507060645 77 60 3.0 0.0 0.00 0.00 0.00 65 1009.0
20260507060330 78 60 3.0 0.0 0.00 0.00 0.00 65 1009.0
20260507060026 78 60 3.0 0.0 0.00 0.00 0.00 65 1009.0
20260507055724 79 60 3.0 0.0 0.00 0.00 0.00 65 1009.0
20260507055415 79 60 3.0 0.0 0.00 0.00 0.00 65 1009.0
20260507055113 80 60 3.0 0.0 0.00 0.00 0.00 65 1009.0
20260507054807 81 60 3.0 0.0 0.00 0.00 0.00 65 1009.0
20260507054500 80 60 3.0 0.0 0.00 0.00 0.00 65 1009.0
20260507054148 81 60 3.0 0.0 0.00 0.00 0.00 65 1009.0
20260507053526 82 60 3.0 0.0 0.00 0.00 0.00 65 1009.0
20260507053224 82 60 3.0 0.0 0.00 0.00 0.00 65 1009.0
20260507052241 83 60 3.0 0.0 0.00 0.00 0.00 65 1009.0
20260507051939 84 60 3.0 0.0 0.00 0.00 0.00 65 1009.0
20260507051632 84 60 3.0 0.0 0.00 0.00 0.00 65 1009.0
20260507051324 84 60 3.0 0.0 0.00 0.00 0.00 65 1009.0
20260507050341 76 59 13.0 18.0 0.00 0.00 0.00 59 1009.0
20260507050026 77 59 13.0 18.0 0.00 0.00 0.00 59 1009.0
20260507045724 78 59 13.0 18.0 0.00 0.00 0.00 59 1009.0
20260507045421 78 59 13.0 18.0 0.00 0.00 0.00 59 1009.0
20260507045106 79 59 13.0 18.0 0.00 0.00 0.00 59 1009.0
20260507044755 80 59 13.0 18.0 0.00 0.00 0.00 59 1009.0
20260507044448 81 59 13.0 18.0 0.00 0.00 0.00 59 1009.0
20260507044147 81 59 13.0 18.0 0.00 0.00 0.00 59 1009.0
20260507043840 82 59 13.0 18.0 0.00 0.00 0.00 59 1009.0
20260507043533 82 59 13.0 18.0 0.00 0.00 0.00 59 1009.0
20260507043226 83 59 13.0 18.0 0.00 0.00 0.00 59 1009.0
20260507042919 82 59 13.0 18.0 0.00 0.00 0.00 59 1009.0
20260507042616 83 59 13.0 18.0 0.00 0.00 0.00 59 1009.0
20260507042310 83 59 13.0 18.0 0.00 0.00 0.00 59 1009.0
20260507041702 84 59 13.0 18.0 0.00 0.00 0.00 59 1009.0
20260507041355 84 59 13.0 18.0 0.00 0.00 0.00 59 1009.0
20260507041051 85 59 13.0 19.0 0.00 0.00 0.00 59 1009.0
20260507040750 87 30 6.0 0.0 0.00 0.00 0.00 58 1009.0
20260507040448 87 30 6.0 0.0 0.00 0.00 0.00 58 1009.0
20260507040147 87 30 6.0 0.0 0.00 0.00 0.00 58 1009.0
20260507035844 87 30 6.0 0.0 0.00 0.00 0.00 58 1009.0
20260507035543 87 30 6.0 0.0 0.00 0.00 0.00 58 1009.0
20260507035228 87 30 6.0 0.0 0.00 0.00 0.00 58 1009.0
20260507034921 87 30 6.0 0.0 0.00 0.00 0.00 58 1009.0
20260507034614 87 30 6.0 0.0 0.00 0.00 0.00 58 1009.0
20260507034307 87 30 6.0 0.0 0.00 0.00 0.00 58 1009.0
20260507033956 87 30 6.0 0.0 0.00 0.00 0.00 58 1009.0
20260507033649 87 30 6.0 0.0 0.00 0.00 0.00 58 1009.0
20260507033346 87 30 6.0 0.0 0.00 0.00 0.00 58 1009.0
20260507033040 87 30 6.0 0.0 0.00 0.00 0.00 58 1009.0
20260507032734 87 30 6.0 0.0 0.00 0.00 0.00 58 1009.0
20260507032432 87 30 6.0 0.0 0.00 0.00 0.00 58 1009.0
20260507032125 87 30 6.0 0.0 0.00 0.00 0.00 58 1009.0
20260507031819 87 30 6.0 0.0 0.00 0.00 0.00 58 1009.0
20260507031512 87 30 6.0 0.0 0.00 0.00 0.00 58 1009.0
20260507031211 87 30 6.0 0.0 0.00 0.00 0.00 58 1009.0
20260507030908 87 30 6.0 0.0 0.00 0.00 0.00 58 1009.0
20260507030605 87 30 6.0 0.0 0.00 0.00 0.00 58 1009.0
20260507030257 87 30 8.0 0.0 0.00 0.00 0.00 62 1009.0
20260507025956 87 30 8.0 0.0 0.00 0.00 0.00 62 1009.0
20260507025654 87 30 8.0 0.0 0.00 0.00 0.00 62 1009.0
20260507025348 87 30 8.0 0.0 0.00 0.00 0.00 62 1009.0
20260507025041 87 30 8.0 0.0 0.00 0.00 0.00 62 1009.0
20260507024735 87 30 8.0 0.0 0.00 0.00 0.00 62 1009.0
20260507024433 87 30 8.0 0.0 0.00 0.00 0.00 62 1009.0
20260507024127 87 30 8.0 0.0 0.00 0.00 0.00 62 1009.0
20260507023820 87 30 8.0 0.0 0.00 0.00 0.00 62 1009.0
20260507023517 87 30 8.0 0.0 0.00 0.00 0.00 62 1008.0
20260507023216 87 30 8.0 0.0 0.00 0.00 0.00 62 1008.0
20260507022914 87 30 8.0 0.0 0.00 0.00 0.00 62 1008.0
20260507022607 87 30 8.0 0.0 0.00 0.00 0.00 62 1008.0